THORAD DELTA 1 DEB, 8175

Orbit data source: Space-Track

THORAD DELTA 1 DEB, 8175 is space debris in SSO originally from a launch on Fri, 15 Nov 1974 UTC launched from the Air Force Western Test Range (AFWTR). Debris objects in space refer to the collection of defunct objects orbiting the Earth. Examples of debris include non-operational satellites, rocket bodies, and fragments generated from explosions, collisions, or faulty payload assembly.

Loading next visibility...
Identifier
8175, 1974-089AR
Orbit
SSO
Country
Flag of USUS
Related business
Manufacturer
Unknown
Mission
Spacecraft
Bus & Motor
Unknown
Mass
Unknown
Launch date (UTC)
1974-11-15 (52 years ago)
Launch vehicle
Unknown
Launch site
Air Force Western Test Range (AFWTR)
Object type
Payload
Rocket body
Debris
Shape & HBR
Unknown shape, 0.1 m
Radar Cross Section
Medium (>0.1 m² and <1 m²)

Expand to show TLE details & history
Last TLE update: 21 hours ago

TLE from 21 hours ago
0 THORAD DELTA 1 DEB
1 08175U 74089AR  26207.34789675  .00001970  00000-0  96696-2 0  9990
2 08175 102.5802 154.9125 0196439 319.3416 193.8300 12.68189964334443
Epoch: 2026-07-26T08:20Z
TLE epoch observation values (Epoch: 2026-07-26T08:20:58.279Z)
Latitude
26.68009°
Longitude
-87.96996°
Altitude
1,540.611 km
Speed
7.03 km/s
True Right ascension
22h 45m 16s
True Declination
26° 33' 22"
Sunlit
Object was in daylight at epoch
Visualization orbit readout
Latitude
Unknown
Longitude
Unknown
Altitude
Unknown
Speed
Unknown
Apparent Right ascension
Unknown
Apparent Declination
Unknown
Sunlit
N/A
Visualization observer readout
Local Sidereal Time
18:30:40
Azimuth
Unknown
Elevation
Unknown
Doppler factor
Unknown
Orbital elements
Apogee altitude
1,539.43 km
Perigee altitude
1,234.359 km
Semi-major axis
7,765.031 km
Eccentricity
0.01964
Inclination
102.5802°
RAAN
154.9125°
Arg. of periapsis
319.3416°
True anomaly
193.30446°
Mean anomaly
193.83°
Eccentric anomaly
193.56599°
Mean motion
3.17196 °/min
Orbital period
113.49 mins
BSTAR
0.0096696
Loading maneuver chart data...
Computing Atmospheric mass density...
Loading historical data...
Loading historical data...
Loading historical data...
Loading historical data...
Loading historical data...
Loading historical data...
Loading historical data...

Documentation

Showing up to 5 results
|